Location: Campillo
(40.8621°N, 4.2488°W)
Time: 12:29:02
(UTC+00:00)

Cosmos 1844 Rocket - Pass Details

Date: 11 May 2021
Orbit: 823 x 845 km, 71.0° (Epoch: 14 June)

Event Time Altitude Azimuth Distance (km) Brightness Sun altitude
Rises 20:18:31 0° 215° (SW) 3,344 5.8 -9.8°
Reaches altitude 10° 20:20:59 10° 220° (SW) 2,416 5.2 -10.2°
Maximum altitude 20:26:24 54° 297° (WNW) 994 3.5 -11.0°
Drops below altitude 10° 20:31:53 10° 15° (NNE) 2,439 5.4 -11.8°
Sets 20:34:23 0° 20° (NNE) 3,380 6.1 -12.2°
